Year,Month,Day,Hour,Minute,Value (Times are PST for temperature in C)
2015,09,23,00,00,8.50
2015,09,23,00,01,8.50
2015,09,23,00,02,8.50
2015,09,23,00,03,8.50
2015,09,23,00,04,8.50
2015,09,23,00,05,8.50
2015,09,23,00,06,8.50
2015,09,23,00,07,8.50
2015,09,23,00,08,8.50
2015,09,23,00,09,8.50
2015,09,23,00,10,8.50
2015,09,23,00,11,8.50
2015,09,23,00,12,8.50
2015,09,23,00,13,8.50
2015,09,23,00,14,8.50
2015,09,23,00,15,8.40
2015,09,23,00,16,8.40
2015,09,23,00,17,8.40
2015,09,23,00,18,8.40
2015,09,23,00,19,8.40
2015,09,23,00,20,8.40
2015,09,23,00,21,8.40
2015,09,23,00,22,8.40
2015,09,23,00,23,8.40
2015,09,23,00,24,8.40
2015,09,23,00,25,8.40
2015,09,23,00,26,8.40
2015,09,23,00,27,8.40
2015,09,23,00,28,8.40
2015,09,23,00,29,8.40
2015,09,23,00,30,8.40
2015,09,23,00,31,8.40
2015,09,23,00,32,8.40
2015,09,23,00,33,8.40
2015,09,23,00,34,8.40
2015,09,23,00,35,8.40
2015,09,23,00,36,8.40
2015,09,23,00,37,8.40
2015,09,23,00,38,8.40
2015,09,23,00,39,8.40
2015,09,23,00,40,8.40
2015,09,23,00,41,8.40
2015,09,23,00,42,8.40
2015,09,23,00,43,8.40
2015,09,23,00,44,8.40
2015,09,23,00,45,8.40
2015,09,23,00,46,8.40
2015,09,23,00,47,8.40
2015,09,23,00,48,8.40
2015,09,23,00,49,8.40
2015,09,23,00,50,8.40
2015,09,23,00,51,8.40
2015,09,23,00,52,8.30
2015,09,23,00,53,8.30
2015,09,23,00,54,8.30
2015,09,23,00,55,8.30
2015,09,23,00,56,8.30
2015,09,23,00,57,8.30
2015,09,23,00,58,8.30
2015,09,23,00,59,8.30
2015,09,23,01,00,8.30
2015,09,23,01,01,8.30
2015,09,23,01,02,8.30
2015,09,23,01,03,8.30
2015,09,23,01,04,8.30
2015,09,23,01,05,8.30
2015,09,23,01,06,8.30
2015,09,23,01,07,8.30
2015,09,23,01,08,8.30
2015,09,23,01,09,8.30
2015,09,23,01,10,8.30
2015,09,23,01,11,8.30
2015,09,23,01,12,8.30
2015,09,23,01,13,8.30
2015,09,23,01,14,8.30
2015,09,23,01,15,8.30
2015,09,23,01,16,8.30
2015,09,23,01,17,8.30
2015,09,23,01,18,8.30
2015,09,23,01,19,8.30
2015,09,23,01,20,8.20
2015,09,23,01,21,8.20
2015,09,23,01,22,8.20
2015,09,23,01,23,8.20
2015,09,23,01,24,8.20
2015,09,23,01,25,8.20
2015,09,23,01,26,8.20
2015,09,23,01,27,8.20
2015,09,23,01,28,8.20
2015,09,23,01,29,8.20
2015,09,23,01,30,8.20
2015,09,23,01,31,8.20
2015,09,23,01,32,8.20
2015,09,23,01,33,8.20
2015,09,23,01,34,8.20
2015,09,23,01,35,8.20
2015,09,23,01,36,8.20
2015,09,23,01,37,8.20
2015,09,23,01,38,8.20
2015,09,23,01,39,8.20
2015,09,23,01,40,8.20
2015,09,23,01,41,8.20
2015,09,23,01,42,8.20
2015,09,23,01,43,8.20
2015,09,23,01,44,8.20
2015,09,23,01,45,8.30
2015,09,23,01,46,8.30
2015,09,23,01,47,8.30
2015,09,23,01,48,8.30
2015,09,23,01,49,8.30
2015,09,23,01,50,8.30
2015,09,23,01,51,8.30
2015,09,23,01,52,8.30
2015,09,23,01,53,8.30
2015,09,23,01,54,8.30
2015,09,23,01,55,8.30
2015,09,23,01,56,8.30
2015,09,23,01,57,8.30
2015,09,23,01,58,8.30
2015,09,23,01,59,8.40
2015,09,23,02,00,8.40
2015,09,23,02,01,8.40
2015,09,23,02,02,8.40
2015,09,23,02,03,8.40
2015,09,23,02,04,8.40
2015,09,23,02,05,8.40
2015,09,23,02,06,8.40
2015,09,23,02,07,8.40
2015,09,23,02,08,8.30
2015,09,23,02,09,8.30
2015,09,23,02,10,8.40
2015,09,23,02,11,8.40
2015,09,23,02,12,8.40
2015,09,23,02,13,8.40
2015,09,23,02,14,8.40
2015,09,23,02,15,8.40
2015,09,23,02,16,8.40
2015,09,23,02,17,8.40
2015,09,23,02,18,8.40
2015,09,23,02,19,8.40
2015,09,23,02,20,8.40
2015,09,23,02,21,8.40
2015,09,23,02,22,8.40
2015,09,23,02,23,8.40
2015,09,23,02,24,8.40
2015,09,23,02,25,8.40
2015,09,23,02,26,8.40
2015,09,23,02,27,8.40
2015,09,23,02,28,8.40
2015,09,23,02,29,8.40
2015,09,23,02,30,8.40
2015,09,23,02,31,8.40
2015,09,23,02,32,8.40
2015,09,23,02,33,8.40
2015,09,23,02,34,8.40
2015,09,23,02,35,8.40
2015,09,23,02,36,8.40
2015,09,23,02,37,8.40
2015,09,23,02,38,8.40
2015,09,23,02,39,8.40
2015,09,23,02,40,8.40
2015,09,23,02,41,8.40
2015,09,23,02,42,8.40
2015,09,23,02,43,8.40
2015,09,23,02,44,8.40
2015,09,23,02,45,8.40
2015,09,23,02,46,8.40
2015,09,23,02,47,8.40
2015,09,23,02,48,8.40
2015,09,23,02,49,8.40
2015,09,23,02,50,8.40
2015,09,23,02,51,8.30
2015,09,23,02,52,8.30
2015,09,23,02,53,8.30
2015,09,23,02,54,8.30
2015,09,23,02,55,8.30
2015,09,23,02,56,8.30
2015,09,23,02,57,8.30
2015,09,23,02,58,8.30
2015,09,23,02,59,8.30
2015,09,23,03,00,8.30
2015,09,23,03,01,8.30
2015,09,23,03,02,8.30
2015,09,23,03,03,8.20
2015,09,23,03,04,8.20
2015,09,23,03,05,8.20
2015,09,23,03,06,8.20
2015,09,23,03,07,8.20
2015,09,23,03,08,8.20
2015,09,23,03,09,8.20
2015,09,23,03,10,8.20
2015,09,23,03,11,8.10
2015,09,23,03,12,8.10
2015,09,23,03,13,8.10
2015,09,23,03,14,8.10
2015,09,23,03,15,8.10
2015,09,23,03,16,8.10
2015,09,23,03,17,8.10
2015,09,23,03,18,8.00
2015,09,23,03,19,8.00
2015,09,23,03,20,8.00
2015,09,23,03,21,8.00
2015,09,23,03,22,8.00
2015,09,23,03,23,8.00
2015,09,23,03,24,8.00
2015,09,23,03,25,8.00
2015,09,23,03,26,8.00
2015,09,23,03,27,8.00
2015,09,23,03,28,8.00
2015,09,23,03,29,8.00
2015,09,23,03,30,8.00
2015,09,23,03,31,8.00
2015,09,23,03,32,7.90
2015,09,23,03,33,7.90
2015,09,23,03,34,7.90
2015,09,23,03,35,7.90
2015,09,23,03,36,7.90
2015,09,23,03,37,7.90
2015,09,23,03,38,7.90
2015,09,23,03,39,7.90
2015,09,23,03,40,7.90
2015,09,23,03,41,7.90
2015,09,23,03,42,7.90
2015,09,23,03,43,7.90
2015,09,23,03,44,7.90
2015,09,23,03,45,7.90
2015,09,23,03,46,7.90
2015,09,23,03,47,7.90
2015,09,23,03,48,7.90
2015,09,23,03,49,7.90
2015,09,23,03,50,7.90
2015,09,23,03,51,7.90
2015,09,23,03,52,7.80
2015,09,23,03,53,7.80
2015,09,23,03,54,7.80
2015,09,23,03,55,7.80
2015,09,23,03,56,7.80
2015,09,23,03,57,7.80
2015,09,23,03,58,7.80
2015,09,23,03,59,7.80
2015,09,23,04,00,7.80
2015,09,23,04,01,7.80
2015,09,23,04,02,7.80
2015,09,23,04,03,7.80
2015,09,23,04,04,7.80
2015,09,23,04,05,7.80
2015,09,23,04,06,7.80
2015,09,23,04,07,7.70
2015,09,23,04,08,7.70
2015,09,23,04,09,7.70
2015,09,23,04,10,7.70
2015,09,23,04,11,7.70
2015,09,23,04,12,7.70
2015,09,23,04,13,7.70
2015,09,23,04,14,7.70
2015,09,23,04,15,7.70
2015,09,23,04,16,7.70
2015,09,23,04,17,7.70
2015,09,23,04,18,7.70
2015,09,23,04,19,7.70
2015,09,23,04,20,7.70
2015,09,23,04,21,7.60
2015,09,23,04,22,7.60
2015,09,23,04,23,7.60
2015,09,23,04,24,7.60
2015,09,23,04,25,7.60
2015,09,23,04,26,7.60
2015,09,23,04,27,7.60
2015,09,23,04,28,7.60
2015,09,23,04,29,7.60
2015,09,23,04,30,7.60
2015,09,23,04,31,7.60
2015,09,23,04,32,7.60
2015,09,23,04,33,7.50
2015,09,23,04,34,7.50
2015,09,23,04,35,7.50
2015,09,23,04,36,7.50
2015,09,23,04,37,7.50
2015,09,23,04,38,7.50
2015,09,23,04,39,7.50
2015,09,23,04,40,7.50
2015,09,23,04,41,7.40
2015,09,23,04,42,7.40
2015,09,23,04,43,7.40
2015,09,23,04,44,7.40
2015,09,23,04,45,7.40
2015,09,23,04,46,7.40
2015,09,23,04,47,7.30
2015,09,23,04,48,7.30
2015,09,23,04,49,7.30
2015,09,23,04,50,7.30
2015,09,23,04,51,7.30
2015,09,23,04,52,7.30
2015,09,23,04,53,7.30
2015,09,23,04,54,7.30
2015,09,23,04,55,7.30
2015,09,23,04,56,7.30
2015,09,23,04,57,7.30
2015,09,23,04,58,7.30
2015,09,23,04,59,7.30
2015,09,23,05,00,7.30
2015,09,23,05,01,7.30
2015,09,23,05,02,7.30
2015,09,23,05,03,7.20
2015,09,23,05,04,7.20
2015,09,23,05,05,7.20
2015,09,23,05,06,7.20
2015,09,23,05,07,7.20
2015,09,23,05,08,7.20
2015,09,23,05,09,7.20
2015,09,23,05,10,7.20
2015,09,23,05,11,7.20
2015,09,23,05,12,7.20
2015,09,23,05,13,7.20
2015,09,23,05,14,7.20
2015,09,23,05,15,7.20
2015,09,23,05,16,7.20
2015,09,23,05,17,7.20
2015,09,23,05,18,7.20
2015,09,23,05,19,7.20
2015,09,23,05,20,7.20
2015,09,23,05,21,7.20
2015,09,23,05,22,7.20
2015,09,23,05,23,7.20
2015,09,23,05,24,7.20
2015,09,23,05,25,7.20
2015,09,23,05,26,7.30
2015,09,23,05,27,7.30
2015,09,23,05,28,7.20
2015,09,23,05,29,7.20
2015,09,23,05,30,7.20
2015,09,23,05,31,7.20
2015,09,23,05,32,7.20
2015,09,23,05,33,7.20
2015,09,23,05,34,7.20
2015,09,23,05,35,7.20
2015,09,23,05,36,7.20
2015,09,23,05,37,7.20
2015,09,23,05,38,7.20
2015,09,23,05,39,7.20
2015,09,23,05,40,7.20
2015,09,23,05,41,7.20
2015,09,23,05,42,7.20
2015,09,23,05,43,7.20
2015,09,23,05,44,7.20
2015,09,23,05,45,7.20
2015,09,23,05,46,7.10
2015,09,23,05,47,7.10
2015,09,23,05,48,7.10
2015,09,23,05,49,7.10
2015,09,23,05,50,7.10
2015,09,23,05,51,7.10
2015,09,23,05,52,7.10
2015,09,23,05,53,7.10
2015,09,23,05,54,7.10
2015,09,23,05,55,7.10
2015,09,23,05,56,7.10
2015,09,23,05,57,7.10
2015,09,23,05,58,7.00
2015,09,23,05,59,7.00
2015,09,23,06,00,7.00
2015,09,23,06,01,7.00
2015,09,23,06,02,7.00
2015,09,23,06,03,7.00
2015,09,23,06,04,7.00
2015,09,23,06,05,7.00
2015,09,23,06,06,7.00
2015,09,23,06,07,6.90
2015,09,23,06,08,6.90
2015,09,23,06,09,6.90
2015,09,23,06,10,6.90
2015,09,23,06,11,6.90
2015,09,23,06,12,6.90
2015,09,23,06,13,6.90
2015,09,23,06,14,6.90
2015,09,23,06,15,6.80
2015,09,23,06,16,6.80
2015,09,23,06,17,6.80
2015,09,23,06,18,6.80
2015,09,23,06,19,6.80
2015,09,23,06,20,6.80
2015,09,23,06,21,6.70
2015,09,23,06,22,6.70
2015,09,23,06,23,6.70
2015,09,23,06,24,6.70
2015,09,23,06,25,6.70
2015,09,23,06,26,6.70
2015,09,23,06,27,6.70
2015,09,23,06,28,6.60
2015,09,23,06,29,6.60
2015,09,23,06,30,6.60
2015,09,23,06,31,6.60
2015,09,23,06,32,6.60
2015,09,23,06,33,6.60
2015,09,23,06,34,6.60
2015,09,23,06,35,6.60
2015,09,23,06,36,6.50
2015,09,23,06,37,6.50
2015,09,23,06,38,6.50
2015,09,23,06,39,6.50
2015,09,23,06,40,6.40
2015,09,23,06,41,6.40
2015,09,23,06,42,6.40
2015,09,23,06,43,6.40
2015,09,23,06,44,6.40
2015,09,23,06,45,6.40
2015,09,23,06,46,6.40
2015,09,23,06,47,6.30
2015,09,23,06,48,6.30
2015,09,23,06,49,6.30
2015,09,23,06,50,6.30
2015,09,23,06,51,6.30
2015,09,23,06,52,6.30
2015,09,23,06,53,6.30
2015,09,23,06,54,6.30
2015,09,23,06,55,6.30
2015,09,23,06,56,6.30
2015,09,23,06,57,6.30
2015,09,23,06,58,6.20
2015,09,23,06,59,6.20
2015,09,23,07,00,6.20
2015,09,23,07,01,6.20
2015,09,23,07,02,6.20
2015,09,23,07,03,6.20
2015,09,23,07,04,6.20
2015,09,23,07,05,6.20
2015,09,23,07,06,6.20
2015,09,23,07,07,6.20
2015,09,23,07,08,6.20
2015,09,23,07,09,6.20
2015,09,23,07,10,6.20
2015,09,23,07,11,6.20
2015,09,23,07,12,6.20
2015,09,23,07,13,6.20
2015,09,23,07,14,6.20
2015,09,23,07,15,6.20
2015,09,23,07,16,6.20
2015,09,23,07,17,6.20
2015,09,23,07,18,6.20
2015,09,23,07,19,6.10
2015,09,23,07,20,6.10
2015,09,23,07,21,6.10
2015,09,23,07,22,6.10
2015,09,23,07,23,6.10
2015,09,23,07,24,6.10
2015,09,23,07,25,6.20
2015,09,23,07,26,6.20
2015,09,23,07,27,6.20
2015,09,23,07,28,6.20
2015,09,23,07,29,6.20
2015,09,23,07,30,6.20
2015,09,23,07,31,6.20
2015,09,23,07,32,6.20
2015,09,23,07,33,6.20
2015,09,23,07,34,6.20
2015,09,23,07,35,6.20
2015,09,23,07,36,6.20
2015,09,23,07,37,6.20
2015,09,23,07,38,6.20
2015,09,23,07,39,6.20
2015,09,23,07,40,6.20
2015,09,23,07,41,6.20
2015,09,23,07,42,6.20
2015,09,23,07,43,6.20
2015,09,23,07,44,6.20
2015,09,23,07,45,6.20
2015,09,23,07,46,6.30
2015,09,23,07,47,6.30
2015,09,23,07,48,6.30
2015,09,23,07,49,6.30
2015,09,23,07,50,6.40
2015,09,23,07,51,6.40
2015,09,23,07,52,6.50
2015,09,23,07,53,6.50
2015,09,23,07,54,6.60
2015,09,23,07,55,6.60
2015,09,23,07,56,6.60
2015,09,23,07,57,6.70
2015,09,23,07,58,6.70
2015,09,23,07,59,6.70
2015,09,23,08,00,6.80
2015,09,23,08,01,6.80
2015,09,23,08,02,6.80
2015,09,23,08,03,6.80
2015,09,23,08,04,6.80
2015,09,23,08,05,6.90
2015,09,23,08,06,6.90
2015,09,23,08,07,6.90
2015,09,23,08,08,7.00
2015,09,23,08,09,7.00
2015,09,23,08,10,7.00
2015,09,23,08,11,7.10
2015,09,23,08,12,7.10
2015,09,23,08,13,7.20
2015,09,23,08,14,7.20
2015,09,23,08,15,7.20
2015,09,23,08,16,7.30
2015,09,23,08,17,7.30
2015,09,23,08,18,7.40
2015,09,23,08,19,7.40
2015,09,23,08,20,7.50
2015,09,23,08,21,7.50
2015,09,23,08,22,7.60
2015,09,23,08,23,7.60
2015,09,23,08,24,7.60
2015,09,23,08,25,7.60
2015,09,23,08,26,7.70
2015,09,23,08,27,7.70
2015,09,23,08,28,7.80
2015,09,23,08,29,7.80
2015,09,23,08,30,7.80
2015,09,23,08,31,7.80
2015,09,23,08,32,7.90
2015,09,23,08,33,7.90
2015,09,23,08,34,7.90
2015,09,23,08,35,8.00
2015,09,23,08,36,8.00
2015,09,23,08,37,8.10
2015,09,23,08,38,8.20
2015,09,23,08,39,8.20
2015,09,23,08,40,8.30
2015,09,23,08,41,8.30
2015,09,23,08,42,8.30
2015,09,23,08,43,8.30
2015,09,23,08,44,8.40
2015,09,23,08,45,8.40
2015,09,23,08,46,8.40
2015,09,23,08,47,8.40
2015,09,23,08,48,8.40
2015,09,23,08,49,8.50
2015,09,23,08,50,8.50
2015,09,23,08,51,8.50
2015,09,23,08,52,8.60
2015,09,23,08,53,8.60
2015,09,23,08,54,8.70
2015,09,23,08,55,8.70
2015,09,23,08,56,8.70
2015,09,23,08,57,8.70
2015,09,23,08,58,8.70
2015,09,23,08,59,8.80
2015,09,23,09,00,8.80
2015,09,23,09,01,8.80
2015,09,23,09,02,8.80
2015,09,23,09,03,8.80
2015,09,23,09,04,8.90
2015,09,23,09,05,8.90
2015,09,23,09,06,8.90
2015,09,23,09,07,8.90
2015,09,23,09,08,9.00
2015,09,23,09,09,9.00
2015,09,23,09,10,9.10
2015,09,23,09,11,9.20
2015,09,23,09,12,9.20
2015,09,23,09,13,9.30
2015,09,23,09,14,9.40
2015,09,23,09,15,9.50
2015,09,23,09,16,9.60
2015,09,23,09,17,9.70
2015,09,23,09,18,9.70
2015,09,23,09,19,9.80
2015,09,23,09,20,9.80
2015,09,23,09,21,9.90
2015,09,23,09,22,9.90
2015,09,23,09,23,10.00
2015,09,23,09,24,10.10
2015,09,23,09,25,10.20
2015,09,23,09,26,10.30
2015,09,23,09,27,10.30
2015,09,23,09,28,10.40
2015,09,23,09,29,10.50
2015,09,23,09,30,10.50
2015,09,23,09,31,10.60
2015,09,23,09,32,10.60
2015,09,23,09,33,10.70
2015,09,23,09,34,10.70
2015,09,23,09,35,10.70
2015,09,23,09,36,10.80
2015,09,23,09,37,10.80
2015,09,23,09,38,10.80
2015,09,23,09,39,10.90
2015,09,23,09,40,10.90
2015,09,23,09,41,10.90
2015,09,23,09,42,10.90
2015,09,23,09,43,11.00
2015,09,23,09,44,11.00
2015,09,23,09,45,11.00
2015,09,23,09,46,11.10
2015,09,23,09,47,11.10
2015,09,23,09,48,11.10
2015,09,23,09,49,11.20
2015,09,23,09,50,11.20
2015,09,23,09,51,11.20
2015,09,23,09,52,11.30
2015,09,23,09,53,11.30
2015,09,23,09,54,11.40
2015,09,23,09,55,11.40
2015,09,23,09,56,11.40
2015,09,23,09,57,11.50
2015,09,23,09,58,11.60
2015,09,23,09,59,11.60
2015,09,23,10,00,11.70
2015,09,23,10,01,11.70
2015,09,23,10,02,11.80
2015,09,23,10,03,11.80
2015,09,23,10,04,11.80
2015,09,23,10,05,11.80
2015,09,23,10,06,11.80
2015,09,23,10,07,11.80
2015,09,23,10,08,11.80
2015,09,23,10,09,11.80
2015,09,23,10,10,11.80
2015,09,23,10,11,11.90
2015,09,23,10,12,11.90
2015,09,23,10,13,11.90
2015,09,23,10,14,12.00
2015,09,23,10,15,12.00
2015,09,23,10,16,12.00
2015,09,23,10,17,12.00
2015,09,23,10,18,12.10
2015,09,23,10,19,12.10
2015,09,23,10,20,12.20
2015,09,23,10,21,12.20
2015,09,23,10,22,12.20
2015,09,23,10,23,12.20
2015,09,23,10,24,12.20
2015,09,23,10,25,12.20
2015,09,23,10,26,12.20
2015,09,23,10,27,12.30
2015,09,23,10,28,12.30
2015,09,23,10,29,12.30
2015,09,23,10,30,12.30
2015,09,23,10,31,12.40
2015,09,23,10,32,12.40
2015,09,23,10,33,12.50
2015,09,23,10,34,12.60
2015,09,23,10,35,12.60
2015,09,23,10,36,12.60
2015,09,23,10,37,12.60
2015,09,23,10,38,12.70
2015,09,23,10,39,12.70
2015,09,23,10,40,12.70
2015,09,23,10,41,12.70
2015,09,23,10,42,12.70
2015,09,23,10,43,12.80
2015,09,23,10,44,12.80
2015,09,23,10,45,12.90
2015,09,23,10,46,12.90
2015,09,23,10,47,13.00
2015,09,23,10,48,13.10
2015,09,23,10,49,13.20
2015,09,23,10,50,13.30
2015,09,23,10,51,13.30
2015,09,23,10,52,13.40
2015,09,23,10,53,13.50
2015,09,23,10,54,13.50
2015,09,23,10,55,13.60
2015,09,23,10,56,13.70
2015,09,23,10,57,13.80
2015,09,23,10,58,13.80
2015,09,23,10,59,13.80
2015,09,23,11,00,13.80
2015,09,23,11,01,13.90
2015,09,23,11,02,14.00
2015,09,23,11,03,14.00
2015,09,23,11,04,14.10
2015,09,23,11,05,14.10
2015,09,23,11,06,14.10
2015,09,23,11,07,14.20
2015,09,23,11,08,14.20
2015,09,23,11,09,14.20
2015,09,23,11,10,14.30
2015,09,23,11,11,14.30
2015,09,23,11,12,14.30
2015,09,23,11,13,14.40
2015,09,23,11,14,14.40
2015,09,23,11,15,14.50
2015,09,23,11,16,14.50
2015,09,23,11,17,14.50
2015,09,23,11,18,14.60
2015,09,23,11,19,14.60
2015,09,23,11,20,14.60
2015,09,23,11,21,14.70
2015,09,23,11,22,14.70
2015,09,23,11,23,14.80
2015,09,23,11,24,14.80
2015,09,23,11,25,14.90
2015,09,23,11,26,14.90
2015,09,23,11,27,14.90
2015,09,23,11,28,14.90
2015,09,23,11,29,14.80
2015,09,23,11,30,14.80
2015,09,23,11,31,14.80
2015,09,23,11,32,14.80
2015,09,23,11,33,14.80
2015,09,23,11,34,14.80
2015,09,23,11,35,14.90
2015,09,23,11,36,14.90
2015,09,23,11,37,14.90
2015,09,23,11,38,14.90
2015,09,23,11,39,14.90
2015,09,23,11,40,14.90
2015,09,23,11,41,15.00
2015,09,23,11,42,15.00
2015,09,23,11,43,15.10
2015,09,23,11,44,15.10
2015,09,23,11,45,15.10
2015,09,23,11,46,15.10
2015,09,23,11,47,15.20
2015,09,23,11,48,15.20
2015,09,23,11,49,15.20
2015,09,23,11,50,15.20
2015,09,23,11,51,15.30
2015,09,23,11,52,15.40
2015,09,23,11,53,15.40
2015,09,23,11,54,15.50
2015,09,23,11,55,15.60
2015,09,23,11,56,15.60
2015,09,23,11,57,15.50
2015,09,23,11,58,15.50
2015,09,23,11,59,15.50
2015,09,23,12,00,15.50
2015,09,23,12,01,15.50
2015,09,23,12,02,15.50
2015,09,23,12,03,15.50
2015,09,23,12,04,15.40
2015,09,23,12,05,15.40
2015,09,23,12,06,15.40
2015,09,23,12,07,15.40
2015,09,23,12,08,15.40
2015,09,23,12,09,15.50
2015,09,23,12,10,15.50
2015,09,23,12,11,15.50
2015,09,23,12,12,15.60
2015,09,23,12,13,15.70
2015,09,23,12,14,15.80
2015,09,23,12,15,15.80
2015,09,23,12,16,15.70
2015,09,23,12,17,15.60
2015,09,23,12,18,15.60
2015,09,23,12,19,15.60
2015,09,23,12,20,15.60
2015,09,23,12,21,15.60
2015,09,23,12,22,15.70
2015,09,23,12,23,15.70
2015,09,23,12,24,15.70
2015,09,23,12,25,15.80
2015,09,23,12,26,15.90
2015,09,23,12,27,15.90
2015,09,23,12,28,15.90
2015,09,23,12,29,15.90
2015,09,23,12,30,15.90
2015,09,23,12,31,16.00
2015,09,23,12,32,16.00
2015,09,23,12,33,16.00
2015,09,23,12,34,16.10
2015,09,23,12,35,16.20
2015,09,23,12,36,16.40
2015,09,23,12,37,16.50
2015,09,23,12,38,16.50
2015,09,23,12,39,16.60
2015,09,23,12,40,16.60
2015,09,23,12,41,16.50
2015,09,23,12,42,16.50
2015,09,23,12,43,16.50
2015,09,23,12,44,16.60
2015,09,23,12,45,16.50
2015,09,23,12,46,16.40
2015,09,23,12,47,16.40
2015,09,23,12,48,16.40
2015,09,23,12,49,16.30
2015,09,23,12,50,16.30
2015,09,23,12,51,16.20
2015,09,23,12,52,16.10
2015,09,23,12,53,16.10
2015,09,23,12,54,16.10
2015,09,23,12,55,16.10
2015,09,23,12,56,16.10
2015,09,23,12,57,16.10
2015,09,23,12,58,16.10
2015,09,23,12,59,16.10
2015,09,23,13,00,16.00
2015,09,23,13,01,16.00
2015,09,23,13,02,16.10
2015,09,23,13,03,16.10
2015,09,23,13,04,16.10
2015,09,23,13,05,16.10
2015,09,23,13,06,16.20
2015,09,23,13,07,16.20
2015,09,23,13,08,16.30
2015,09,23,13,09,16.30
2015,09,23,13,10,16.40
2015,09,23,13,11,16.50
2015,09,23,13,12,16.50
2015,09,23,13,13,16.60
2015,09,23,13,14,16.60
2015,09,23,13,15,16.60
2015,09,23,13,16,16.60
2015,09,23,13,17,16.60
2015,09,23,13,18,16.60
2015,09,23,13,19,16.70
2015,09,23,13,20,16.70
2015,09,23,13,21,16.80
2015,09,23,13,22,16.80
2015,09,23,13,23,16.70
2015,09,23,13,24,16.70
2015,09,23,13,25,16.60
2015,09,23,13,26,16.60
2015,09,23,13,27,16.60
2015,09,23,13,28,16.70
2015,09,23,13,29,16.70
2015,09,23,13,30,16.80
2015,09,23,13,31,16.90
2015,09,23,13,32,16.90
2015,09,23,13,33,16.90
2015,09,23,13,34,16.90
2015,09,23,13,35,17.00
2015,09,23,13,36,17.10
2015,09,23,13,37,17.10
2015,09,23,13,38,17.10
2015,09,23,13,39,17.00
2015,09,23,13,40,17.00
2015,09,23,13,41,16.90
2015,09,23,13,42,16.90
2015,09,23,13,43,16.90
2015,09,23,13,44,16.90
2015,09,23,13,45,16.80
2015,09,23,13,46,16.90
2015,09,23,13,47,16.90
2015,09,23,13,48,16.90
2015,09,23,13,49,16.90
2015,09,23,13,50,16.80
2015,09,23,13,51,16.80
2015,09,23,13,52,16.70
2015,09,23,13,53,16.60
2015,09,23,13,54,16.60
2015,09,23,13,55,16.60
2015,09,23,13,56,16.60
2015,09,23,13,57,16.60
2015,09,23,13,58,16.60
2015,09,23,13,59,16.70
2015,09,23,14,00,16.90
2015,09,23,14,01,17.00
2015,09,23,14,02,17.20
2015,09,23,14,03,17.20
2015,09,23,14,04,17.30
2015,09,23,14,05,17.30
2015,09,23,14,06,17.40
2015,09,23,14,07,17.40
2015,09,23,14,08,17.40
2015,09,23,14,09,17.40
2015,09,23,14,10,17.50
2015,09,23,14,11,17.50
2015,09,23,14,12,17.50
2015,09,23,14,13,17.50
2015,09,23,14,14,17.40
2015,09,23,14,15,17.40
2015,09,23,14,16,17.50
2015,09,23,14,17,17.50
2015,09,23,14,18,17.50
2015,09,23,14,19,17.50
2015,09,23,14,20,17.50
2015,09,23,14,21,17.50
2015,09,23,14,22,17.50
2015,09,23,14,23,17.40
2015,09,23,14,24,17.30
2015,09,23,14,25,17.30
2015,09,23,14,26,17.30
2015,09,23,14,27,17.30
2015,09,23,14,28,17.20
2015,09,23,14,29,17.20
2015,09,23,14,30,17.20
2015,09,23,14,31,17.10
2015,09,23,14,32,17.10
2015,09,23,14,33,17.00
2015,09,23,14,34,17.00
2015,09,23,14,35,16.90
2015,09,23,14,36,16.90
2015,09,23,14,37,17.00
2015,09,23,14,38,17.00
2015,09,23,14,39,17.10
2015,09,23,14,40,17.10
2015,09,23,14,41,17.10
2015,09,23,14,42,17.10
2015,09,23,14,43,17.10
2015,09,23,14,44,17.10
2015,09,23,14,45,17.10
2015,09,23,14,46,17.10
2015,09,23,14,47,17.10
2015,09,23,14,48,17.10
2015,09,23,14,49,17.10
2015,09,23,14,50,17.20
2015,09,23,14,51,17.30
2015,09,23,14,52,17.40
2015,09,23,14,53,17.40
2015,09,23,14,54,17.50
2015,09,23,14,55,17.50
2015,09,23,14,56,17.50
2015,09,23,14,57,17.50
2015,09,23,14,58,17.60
2015,09,23,14,59,17.60
2015,09,23,15,00,17.60
2015,09,23,15,01,17.70
2015,09,23,15,02,17.70
2015,09,23,15,03,17.70
2015,09,23,15,04,17.70
2015,09,23,15,05,17.70
2015,09,23,15,06,17.60
2015,09,23,15,07,17.60
2015,09,23,15,08,17.60
2015,09,23,15,09,17.60
2015,09,23,15,10,17.60
2015,09,23,15,11,17.60
2015,09,23,15,12,17.60
2015,09,23,15,13,17.60
2015,09,23,15,14,17.60
2015,09,23,15,15,17.70
2015,09,23,15,16,17.70
2015,09,23,15,17,17.70
2015,09,23,15,18,17.70
2015,09,23,15,19,17.70
2015,09,23,15,20,17.70
2015,09,23,15,21,17.60
2015,09,23,15,22,17.60
2015,09,23,15,23,17.60
2015,09,23,15,24,17.60
2015,09,23,15,25,17.50
2015,09,23,15,26,17.50
2015,09,23,15,27,17.50
2015,09,23,15,28,17.60
2015,09,23,15,29,17.60
2015,09,23,15,30,17.60
2015,09,23,15,31,17.70
2015,09,23,15,32,17.70
2015,09,23,15,33,17.70
2015,09,23,15,34,17.80
2015,09,23,15,35,17.80
2015,09,23,15,36,17.80
2015,09,23,15,37,17.80
2015,09,23,15,38,17.80
2015,09,23,15,39,17.90
2015,09,23,15,40,17.90
2015,09,23,15,41,17.90
2015,09,23,15,42,17.80
2015,09,23,15,43,17.80
2015,09,23,15,44,17.70
2015,09,23,15,45,17.70
2015,09,23,15,46,17.60
2015,09,23,15,47,17.50
2015,09,23,15,48,17.50
2015,09,23,15,49,17.40
2015,09,23,15,50,17.40
2015,09,23,15,51,17.40
2015,09,23,15,52,17.40
2015,09,23,15,53,17.40
2015,09,23,15,54,17.40
2015,09,23,15,55,17.40
2015,09,23,15,56,17.40
2015,09,23,15,57,17.40
2015,09,23,15,58,17.40
2015,09,23,15,59,17.30
2015,09,23,16,00,17.30
2015,09,23,16,01,17.30
2015,09,23,16,02,17.30
2015,09,23,16,03,17.20
2015,09,23,16,04,17.20
2015,09,23,16,05,17.10
2015,09,23,16,06,17.10
2015,09,23,16,07,17.10
2015,09,23,16,08,17.10
2015,09,23,16,09,17.10
2015,09,23,16,10,17.00
2015,09,23,16,11,17.00
2015,09,23,16,12,17.00
2015,09,23,16,13,17.00
2015,09,23,16,14,17.00
2015,09,23,16,15,17.00
2015,09,23,16,16,17.00
2015,09,23,16,17,16.90
2015,09,23,16,18,16.90
2015,09,23,16,19,16.90
2015,09,23,16,20,16.90
2015,09,23,16,21,16.90
2015,09,23,16,22,16.90
2015,09,23,16,23,16.90
2015,09,23,16,24,16.90
2015,09,23,16,25,16.90
2015,09,23,16,26,16.90
2015,09,23,16,27,16.90
2015,09,23,16,28,16.90
2015,09,23,16,29,16.90
2015,09,23,16,30,16.90
2015,09,23,16,31,16.90
2015,09,23,16,32,16.90
2015,09,23,16,33,16.90
2015,09,23,16,34,16.90
2015,09,23,16,35,17.00
2015,09,23,16,36,17.00
2015,09,23,16,37,17.00
2015,09,23,16,38,17.00
2015,09,23,16,39,17.00
2015,09,23,16,40,17.10
2015,09,23,16,41,17.10
2015,09,23,16,42,17.10
2015,09,23,16,43,17.10
2015,09,23,16,44,17.20
2015,09,23,16,45,17.20
2015,09,23,16,46,17.20
2015,09,23,16,47,17.20
2015,09,23,16,48,17.30
2015,09,23,16,49,17.30
2015,09,23,16,50,17.30
2015,09,23,16,51,17.30
2015,09,23,16,52,17.30
2015,09,23,16,53,17.40
2015,09,23,16,54,17.40
2015,09,23,16,55,17.40
2015,09,23,16,56,17.50
2015,09,23,16,57,17.60
2015,09,23,16,58,17.60
2015,09,23,16,59,17.70
2015,09,23,17,00,17.80
2015,09,23,17,01,17.80
2015,09,23,17,02,17.80
2015,09,23,17,03,17.80
2015,09,23,17,04,17.80
2015,09,23,17,05,17.80
2015,09,23,17,06,17.80
2015,09,23,17,07,17.80
2015,09,23,17,08,17.70
2015,09,23,17,09,17.80
2015,09,23,17,10,17.80
2015,09,23,17,11,17.80
2015,09,23,17,12,17.80
2015,09,23,17,13,17.80
2015,09,23,17,14,17.80
2015,09,23,17,15,17.70
2015,09,23,17,16,17.70
2015,09,23,17,17,17.70
2015,09,23,17,18,17.70
2015,09,23,17,19,17.60
2015,09,23,17,20,17.60
2015,09,23,17,21,17.50
2015,09,23,17,22,17.50
2015,09,23,17,23,17.50
2015,09,23,17,24,17.40
2015,09,23,17,25,17.40
2015,09,23,17,26,17.40
2015,09,23,17,27,17.40
2015,09,23,17,28,17.40
2015,09,23,17,29,17.30
2015,09,23,17,30,17.30
2015,09,23,17,31,17.40
2015,09,23,17,32,17.40
2015,09,23,17,33,17.40
2015,09,23,17,34,17.40
2015,09,23,17,35,17.40
2015,09,23,17,36,17.40
2015,09,23,17,37,17.40
2015,09,23,17,38,17.40
2015,09,23,17,39,17.30
2015,09,23,17,40,17.30
2015,09,23,17,41,17.30
2015,09,23,17,42,17.30
2015,09,23,17,43,17.30